Wind_Speed
5 3 4 7 9 11 13 14 16 16 16 17 17 15 14 13 9 6 2 2 4 5 5 6 5 5 4 4 5 6 7 7 8 8 8 9 10 10 10 10 11 12 12 13
5 3 5 8 9 11 12 14 15 16 16 16 15 13 12 12 9 6 3 1 3 4 6 7 5 4 3 3 5 5 6 6 7 8 8 9 9 10 10 10 11 12 13 13
9 6 6 8 9 11 12 13 14 15 16 15 13 11 10 10 9 7 6 4 5 4 4 4 3 2 2 3 4 5 6 6 7 7 8 9 9 9 10 10 11 12 12 12
8 7 6 8 10 12 13 13 13 13 14 14 10 9 9 9 9 8 7 6 5 4 3 3 1 2 2 3 3 4 5 6 6 6 7 8 9 9 10 10 11 12 12 13
7 8 7 10 12 12 12 12 11 11 11 10 8 7 7 7 8 8 8 6 5 4 3 2 2 1 2 2 3 4 4 4 5 6 7 8 9 10 11 11 12 12 14 15
8 9 9 10 12 11 11 10 10 8 8 7 7 5 6 6 7 7 8 7 5 4 3 3 2 1 0 1 2 2 3 4 5 7 8 8 9 10 11 12 13 15 16 17
9 9 10 11 11 11 10 9 9 8 7 7 6 4 4 5 6 7 7 6 5 4 3 2 2 2 1 1 2 3 3 5 6 7 8 9 10 11 13 14 15 17 18 19
11 11 11 11 10 9 9 9 9 9 9 7 5 4 2 4 6 7 7 6 5 4 3 2 2 1 0 1 2 3 4 5 6 7 9 10 11 12 14 15 17 18 20 21
15 12 11 12 11 10 9 9 10 10 10 8 5 2 1 2 4 6 6 6 5 5 4 3 2 2 1 1 2 3 5 5 6 8 9 10 12 13 15 17 18 20 22 23
16 14 12 12 12 10 10 10 10 10 10 8 6 4 3 2 2 4 4 5 5 4 4 3 2 1 0 1 3 4 4 5 7 8 10 11 13 14 16 18 20 22 23 25
16 13 12 13 12 12 11 11 11 10 11 11 10 7 6 5 4 3 3 4 4 4 3 3 2 1 1 2 3 5 6 7 9 10 11 13 14 16 18 19 22 24 26 27
15 13 13 14 13 13 13 12 12 12 11 11 11 9 7 6 5 4 4 4 3 3 3 2 2 3 3 4 5 6 8 9 11 12 14 15 16 18 20 22 24 26 27 29
14 14 14 13 14 14 14 13 14 13 13 12 12 10 9 8 7 7 6 6 5 4 3 4 4 5 5 6 7 9 10 11 13 14 16 17 19 20 22 24 26 27 29 30
16 15 15 14 13 13 14 13 13 14 14 13 12 12 11 11 10 9 9 8 6 5 5 6 6 7 8 9 10 11 12 13 14 16 17 19 20 22 24 25 27 29 31 32
19 16 16 14 14 15 14 14 14 14 15 15 14 14 13 12 12 12 10 9 9 8 8 9 9 10 11 12 13 14 14 15 16 18 19 21 22 23 25 27 29 31 32 34
19 18 17 15 15 16 16 15 15 16 16 16 16 15 14 13 13 13 12 11 11 11 11 11 12 12 13 14 15 16 17 18 19 20 21 23 24 25 26 29 31 32 33 35
19 18 18 16 16 18 18 17 18 19 18 19 19 17 16 16 14 13 13 13 13 13 12 13 14 15 16 17 18 18 19 20 21 22 23 24 26 27 29 31 32 34 35 36
19 18 18 17 17 19 16 17 19 19 20 21 20 20 19 17 16 16 15 14 14 14 14 15 16 17 18 19 20 20 21 22 23 24 25 26 27 28 30 32 34 36 36 36
18 18 18 17 17 17 16 17 19 20 21 21 21 21 20 20 19 17 16 16 16 16 17 18 18 19 20 21 22 22 23 24 25 26 27 28 29 30 32 34 35 36 37 38
19 19 19 19 20 19 17 18 20 21 23 23 22 21 22 23 22 20 19 19 19 19 20 20 21 22 22 23 24 25 25 26 27 28 29 30 31 32 34 35 36 37 39 40
21 21 20 20 20 20 20 19 20 22 23 23 23 23 24 25 23 22 22 21 20 21 22 22 23 23 24 25 26 26 27 28 29 30 31 32 33 35 36 37 38 39 40 41
24 24 23 23 22 22 23 22 20 21 22 22 23 24 23 23 23 22 22 24 23 22 23 24 24 25 26 26 27 28 29 31 31 32 33 34 36 37 38 39 39 41 41 41
24 25 24 24 23 23 22 22 22 20 21 22 22 22 22 22 20 20 22 22 22 23 24 25 26 28 28 28 30 30 31 32 33 34 35 37 38 38 39 40 41 42 43 43
25 25 25 26 26 24 23 22 22 22 21 19 19 19 19 20 20 21 22 23 24 25 26 27 27 29 30 31 31 32 34 35 35 36 37 39 40 41 42 43 43 43 44 44
27 28 27 27 25 25 24 24 24 22 21 20 19 18 20 20 22 23 23 25 26 27 28 28 29 31 32 32 34 35 36 36 37 38 39 40 42 43 43 43 44 44 45 45
27 28 28 27 26 26 25 24 23 22 21 20 20 20 21 22 23 25 26 27 28 29 30 31 32 32 33 34 35 37 38 39 40 40 40 42 43 44 45 45 46 46 46 46
Wind_Direction
257 268 338 352 354 351 346 343 336 333 335 339 345 344 344 345 343 331 302 230 216 175 165 159 176 195 226 257 279 292 296 300 301 306 313 318 320 318 314 309 307 307 306 305
259 278 335 350 346 338 333 332 331 332 335 339 344 353 356 355 1 357 354 271 205 159 158 161 179 203 234 275 290 294 296 302 310 315 319 322 320 318 317 316 315 313 311 311
263 283 323 329 320 316 319 323 330 333 337 339 340 355 8 24 27 22 24 55 89 127 128 138 171 231 260 283 294 298 301 304 314 319 323 324 323 323 322 322 321 319 319 318
266 274 307 313 307 309 311 317 325 325 330 336 343 355 8 25 36 40 42 56 61 76 100 123 179 243 266 278 293 306 313 315 320 327 329 331 334 335 333 331 328 326 325 323
275 282 295 307 305 306 306 312 317 325 326 333 345 357 15 24 33 36 37 44 53 65 92 127 158 191 251 280 308 322 320 321 328 336 339 341 342 341 339 337 335 333 330 326
277 283 290 306 302 300 304 308 311 317 331 330 340 359 28 41 39 40 38 44 55 61 88 116 124 140 220 303 334 343 344 345 346 346 346 345 343 341 341 342 340 338 334 329
270 278 292 302 301 296 298 297 301 309 322 329 339 349 34 46 44 45 40 46 51 58 82 109 116 101 58 4 345 353 356 353 348 346 344 343 342 342 344 344 342 339 336 333
273 277 288 300 296 296 305 295 295 302 310 310 323 341 52 51 49 52 48 48 57 69 91 110 103 103 87 334 343 351 347 343 343 342 340 340 341 343 343 342 341 339 337 334
273 273 286 297 294 291 299 292 287 290 294 292 300 341 338 35 42 46 49 56 66 77 90 102 100 107 111 353 341 335 330 330 333 336 337 338 340 340 339 337 337 336 334 333
267 267 279 287 285 284 287 285 274 277 283 285 282 296 340 320 6 33 45 50 57 73 87 98 95 71 357 319 316 316 317 322 327 329 331 333 334 333 333 332 332 331 330 330
264 265 273 278 277 276 280 275 277 273 272 273 280 282 284 296 308 337 2 22 45 49 58 64 45 339 308 311 315 320 321 320 321 322 323 324 324 325 327 328 329 329 328 328
265 267 273 278 276 272 274 272 272 273 273 272 273 281 285 280 290 311 325 339 7 19 19 12 353 332 323 321 321 321 319 318 319 318 318 317 318 320 323 325 326 326 327 327
270 274 275 276 277 271 266 266 267 266 267 266 273 280 280 281 286 298 310 322 336 346 340 332 331 327 323 317 314 313 313 313 312 312 313 313 314 316 318 320 322 323 324 325
274 271 274 278 278 271 261 257 256 258 259 264 274 282 279 282 283 291 298 307 317 325 324 319 318 316 312 309 305 303 304 304 305 306 309 311 312 313 314 317 319 320 322 324
268 267 272 274 272 264 257 253 251 254 258 261 269 277 279 281 286 290 294 302 310 315 317 313 310 307 303 299 296 295 296 298 301 304 306 308 310 311 313 316 318 319 320 321
272 272 271 268 262 259 255 253 252 253 259 262 266 273 280 278 283 287 292 300 304 308 310 306 301 297 293 291 291 291 292 294 297 301 304 307 308 310 313 315 317 318 318 320
271 273 267 263 259 256 252 251 250 254 260 265 268 274 274 274 277 280 284 293 299 302 300 295 289 286 286 285 286 288 290 292 295 299 303 305 306 308 311 314 315 316 318 319
270 269 268 265 262 256 251 251 255 259 264 264 268 272 274 272 275 276 277 285 292 290 288 287 284 282 283 283 284 285 288 291 294 298 300 303 305 307 310 312 314 316 317 319
267 268 269 266 262 259 252 251 255 261 265 268 271 271 272 272 272 273 273 275 282 288 287 285 284 284 283 284 285 286 288 291 294 296 298 301 304 306 308 311 314 315 317 318
262 266 267 267 264 260 256 255 255 260 263 268 270 270 273 274 270 269 271 274 278 285 287 286 285 286 284 284 285 286 288 291 294 295 297 299 303 305 308 310 312 314 316 318
261 262 262 263 266 263 263 264 263 264 269 273 272 272 272 275 269 272 274 273 275 280 285 288 288 286 286 286 287 288 290 292 294 296 297 300 302 305 307 309 311 313 315 316
263 266 268 269 269 271 274 272 276 275 275 279 279 275 275 274 271 273 276 278 277 282 285 288 288 286 288 288 288 290 291 292 294 297 299 300 302 305 306 308 310 311 312 314
268 271 273 274 273 275 280 282 285 281 281 282 282 279 277 275 275 276 280 281 279 283 285 285 286 287 287 289 290 291 292 293 295 297 298 300 302 304 305 307 308 309 310 312
266 270 273 277 279 282 284 285 288 287 284 284 285 284 287 287 286 287 285 283 283 286 286 285 287 288 288 289 290 290 291 292 295 296 298 300 302 303 304 305 307 308 309 310
265 269 275 279 283 281 283 285 288 288 285 285 289 290 291 291 289 286 285 285 286 288 288 286 287 288 288 289 289 290 292 294 295 296 297 299 300 302 303 304 306 307 307 308
266 271 276 280 283 284 286 287 288 287 288 291 293 292 290 288 287 287 287 287 287 287 287 288 288 288 287 289 290 292 293 294 296 296 297 298 299 300 301 301 303 305 305 306
Height
5893 5893 5891 5889 5887 5886 5884 5883 5882 5880 5878 5875 5872 5868 5865 5861 5857 5855 5854 5855 5857 5858 5859 5861 5865 5867 5869 5871 5872 5873 5872 5872 5872 5871 5871 5869 5868 5867 5865 5864 5862 5860 5859 5858
5892 5890 5889 5887 5885 5885 5883 5882 5880 5878 5876 5873 5871 5867 5863 5860 5857 5856 5854 5854 5854 5857 5859 5860 5863 5866 5868 5869 5870 5870 5870 5870 5870 5869 5868 5867 5866 5864 5863 5861 5859 5858 5856 5854
5889 5888 5886 5885 5884 5883 5882 5881 5879 5876 5874 5872 5870 5868 5864 5862 5859 5857 5855 5853 5854 5856 5857 5859 5862 5864 5866 5867 5868 5868 5868 5868 5868 5867 5865 5865 5863 5862 5860 5858 5857 5855 5853 5851
5886 5885 5884 5883 5882 5881 5880 5879 5877 5874 5872 5870 5869 5868 5865 5863 5861 5860 5858 5857 5856 5857 5858 5860 5862 5863 5865 5866 5866 5866 5866 5866 5865 5864 5863 5862 5861 5859 5858 5856 5854 5852 5850 5848
5884 5883 5883 5882 5881 5879 5878 5877 5875 5873 5871 5869 5868 5867 5866 5863 5861 5860 5859 5858 5858 5858 5858 5860 5861 5863 5864 5864 5864 5864 5864 5864 5863 5862 5861 5860 5858 5857 5855 5854 5852 5850 5848 5845
5882 5881 5881 5880 5879 5877 5875 5875 5873 5871 5870 5868 5867 5866 5865 5863 5862 5860 5859 5858 5858 5858 5858 5859 5861 5862 5862 5862 5862 5862 5862 5861 5861 5859 5858 5857 5856 5855 5853 5851 5849 5847 5844 5841
5880 5879 5879 5878 5876 5875 5874 5873 5872 5870 5868 5867 5866 5865 5865 5863 5861 5860 5859 5858 5857 5857 5858 5859 5860 5860 5861 5861 5861 5861 5860 5859 5858 5857 5856 5855 5854 5852 5850 5848 5845 5843 5841 5838
5876 5877 5876 5874 5874 5873 5872 5871 5871 5869 5867 5866 5865 5864 5865 5862 5861 5860 5859 5858 5858 5857 5858 5859 5859 5859 5860 5859 5859 5859 5858 5858 5857 5856 5854 5853 5852 5850 5847 5845 5842 5840 5837 5834
5872 5873 5873 5871 5870 5870 5869 5868 5868 5866 5865 5864 5864 5864 5863 5862 5861 5860 5860 5859 5858 5858 5858 5858 5858 5858 5858 5858 5858 5857 5857 5856 5855 5854 5852 5851 5849 5847 5844 5842 5839 5836 5832 5829
5868 5869 5869 5868 5868 5867 5867 5866 5866 5864 5863 5862 5863 5862 5863 5861 5860 5860 5859 5858 5857 5857 5857 5857 5857 5857 5857 5857 5856 5856 5855 5854 5853 5852 5850 5848 5846 5844 5841 5838 5835 5832 5828 5824
5864 5864 5864 5864 5864 5865 5864 5864 5862 5862 5861 5860 5859 5862 5861 5860 5859 5859 5859 5858 5857 5856 5856 5856 5856 5856 5856 5855 5855 5854 5853 5852 5850 5849 5847 5845 5843 5840 5838 5834 5831 5827 5823 5819
5860 5860 5860 5860 5861 5860 5860 5860 5859 5859 5858 5857 5857 5860 5858 5857 5857 5856 5856 5856 5855 5854 5854 5854 5854 5854 5853 5852 5852 5851 5850 5848 5847 5845 5843 5841 5839 5836 5833 5830 5826 5822 5818 5814
5856 5857 5857 5857 5858 5857 5856 5856 5855 5855 5855 5854 5853 5856 5854 5854 5854 5854 5853 5853 5852 5852 5851 5851 5851 5850 5850 5849 5848 5847 5846 5845 5843 5842 5840 5838 5835 5832 5829 5825 5821 5817 5813 5808
5852 5852 5853 5853 5853 5852 5852 5852 5851 5850 5850 5850 5850 5850 5850 5850 5850 5851 5850 5849 5849 5849 5848 5847 5847 5846 5846 5845 5845 5844 5843 5841 5840 5838 5836 5833 5830 5827 5824 5820 5816 5811 5807 5802
5848 5848 5848 5848 5848 5847 5848 5848 5847 5846 5846 5846 5846 5845 5846 5845 5846 5846 5846 5845 5845 5845 5844 5843 5843 5843 5842 5841 5841 5840 5839 5837 5835 5833 5831 5828 5825 5822 5818 5814 5810 5805 5800 5795
5843 5843 5843 5844 5844 5843 5843 5843 5842 5841 5841 5840 5841 5841 5841 5841 5841 5841 5841 5840 5840 5840 5840 5839 5839 5839 5838 5837 5836 5835 5834 5832 5830 5828 5825 5822 5819 5816 5812 5808 5803 5799 5794 5789
5837 5838 5838 5839 5839 5838 5838 5838 5837 5837 5836 5836 5836 5837 5836 5836 5836 5836 5836 5836 5836 5836 5836 5836 5835 5834 5833 5832 5831 5830 5828 5826 5824 5822 5819 5816 5812 5809 5805 5801 5796 5791 5786 5781
5832 5832 5832 5833 5834 5833 5836 5834 5833 5832 5832 5831 5831 5831 5831 5831 5831 5831 5832 5832 5832 5832 5832 5831 5830 5829 5828 5827 5825 5824 5822 5820 5818 5815 5812 5809 5805 5802 5798 5793 5789 5784 5778 5773
5827 5827 5827 5827 5827 5828 5829 5828 5828 5827 5826 5826 5826 5826 5826 5826 5826 5826 5826 5826 5827 5827 5827 5826 5825 5823 5822 5820 5819 5817 5815 5813 5810 5808 5805 5801 5798 5794 5790 5785 5780 5775 5770 5765
5821 5821 5821 5821 5821 5822 5824 5823 5823 5823 5821 5822 5821 5821 5821 5821 5821 5821 5821 5821 5821 5821 5820 5819 5818 5816 5815 5813 5812 5810 5807 5805 5803 5800 5797 5793 5789 5785 5781 5776 5771 5766 5761 5756
5815 5814 5815 5815 5815 5816 5817 5817 5818 5818 5818 5816 5815 5815 5815 5814 5815 5815 5815 5814 5814 5813 5813 5812 5811 5809 5808 5806 5804 5802 5800 5797 5794 5791 5788 5785 5780 5776 5772 5767 5762 5757 5752 5746
5808 5808 5808 5808 5809 5812 5811 5811 5812 5811 5811 5810 5809 5808 5808 5807 5807 5807 5808 5806 5806 5806 5805 5804 5803 5802 5800 5798 5796 5794 5792 5789 5786 5783 5779 5775 5771 5766 5762 5758 5753 5748 5742 5737
5802 5802 5802 5803 5804 5804 5804 5804 5804 5803 5803 5803 5803 5802 5802 5801 5800 5800 5800 5799 5798 5798 5797 5796 5795 5794 5792 5790 5787 5785 5783 5780 5777 5773 5770 5766 5761 5757 5752 5748 5743 5738 5732 5727
5795 5795 5795 5795 5795 5796 5797 5797 5796 5795 5795 5795 5795 5795 5794 5794 5794 5793 5793 5792 5791 5790 5789 5788 5786 5785 5783 5781 5778 5776 5773 5770 5767 5764 5760 5755 5751 5747 5742 5737 5733 5727 5722 5716
5788 5788 5788 5788 5788 5789 5790 5790 5789 5789 5788 5788 5788 5788 5787 5787 5787 5786 5785 5784 5783 5782 5781 5779 5777 5776 5774 5771 5769 5766 5763 5759 5756 5753 5749 5745 5740 5736 5731 5726 5721 5716 5711 5705
5782 5782 5782 5781 5782 5782 5782 5782 5782 5781 5781 5781 5781 5781 5780 5780 5779 5778 5777 5776 5775 5773 5771 5769 5767 5765 5763 5761 5758 5755 5752 5748 5745 5741 5737 5733 5729 5724 5720 5715 5710 5704 5699 5694